Regional Weather Roundup
Issued by NWS

Home | Current Version | Previous Version | Text Only | Print | Product List | Glossary Off
Versions: 1 2 3 4 5 6 7 8 9 10 11 12 13 14 15 16 17 18 19 20 21 22 23 24 25 26 27 28 29 30 31 32 33 34 35 36 37 38 39 40 41 42 43 44 45 46 47 48 49 50

000
ASUS44 KMEG 230610
RWRTN
TENNESSEE HOURLY STATE WEATHER ROUNDUP
NATIONAL WEATHER SERVICE MEMPHIS TN
100 AM CDT TUE SEP 23 2014

TNZ002-004-019-021-049-052-054-088>092-230700-
WEST TENNESSEE

CITY           SKY/WX    TMP DP  RH WIND       PRES   REMARKS
MEMPHIS INTL   CLEAR     62  47  57 NE7       30.21S
NWS MEMPHIS      N/A     60 N/A N/A MISG        N/A
JACKSON        CLEAR     55  47  74 CALM      30.22R
DYERSBURG      CLEAR     55  39  54 NE5       30.25R
UNION CITY     CLEAR     52  46  82 NE3       30.23S
PARIS          CLEAR     46  43  87 N5        30.24S
HUNTINGDON     CLEAR     49  44  83 CALM      30.24R
LEXINGTON      CLEAR     50  46  87 N3        30.21R
SAVANNAH       CLEAR     48  48 100 CALM      30.21R
$$

TNZ008-025-027-028-033-062-065-066-230700-
NORTH MIDDLE TENNESSEE

CITY           SKY/WX    TMP DP  RH WIND       PRES   REMARKS
NASHVILLE      CLEAR     55  47  74 NE6       30.23S
DICKSON        CLEAR     54  45  71 E3        30.22S
PORTLAND       CLEAR     48  45  87 CALM      30.24R
CLARKSVILLE    CLEAR     51  44  77 N5        30.25R
LEBANON        CLEAR     47  44  89 CALM      30.22R
SMYRNA         CLEAR     55  46  71 CALM      30.23S
MURFREESBORO   CLEAR     53  45  74 CALM      30.22S
COOKEVILLE     CLEAR     43  43 100 CALM      30.21S
GALLATIN       CLEAR     55  47  74 NE7       30.24R
CROSSVILLE     CLEAR     52  45  77 NE3       30.23S
$$

TNZ061-075-076-078-094-096-097-230700-
SOUTH MIDDLE TENNESSEE

CITY           SKY/WX    TMP DP  RH WIND       PRES   REMARKS
LEWISBURG      CLEAR     46  43  90 CALM      30.21S
FAYETTEVILLE   CLEAR     54  45  71 N9        30.20R
TULLAHOMA      CLEAR     52  45  76 N5        30.22R
WINCHESTER     CLEAR     54  48  82 CALM      30.20S
MCMINNVILLE    CLEAR     48  48 100 CALM      30.22R
COLUMBIA       CLEAR     52  50  93 CALM      30.20S
SHELBYVILLE    CLEAR     54  46  76 N6        30.22S
$$

TNZ017-018-042-046-047-230700-
NORTHEAST TENNESSEE

CITY           SKY/WX    TMP DP  RH WIND       PRES   REMARKS
TRI CITIES     CLEAR     50  46  86 CALM      30.24S
ELIZABETHTON   CLEAR     45  45 100 CALM      30.24S
$$

TNZ012-013-036-069-073-074-230700-
CENTRAL EAST TENNESSEE

CITY           SKY/WX    TMP DP  RH WIND       PRES   REMARKS
KNOXVILLE      CLEAR     54  50  86 NE7       30.21R
OAK RIDGE      CLEAR     54  49  83 NE3       30.24R
GATLINBURG     CLEAR     50  48  93 CALM      30.22S
MORRISTOWN     CLEAR     54  48  82 E5        30.24S
$$

TNZ083-085-099-230700-
SOUTHEAST TENNESSEE

CITY           SKY/WX    TMP DP  RH WIND       PRES   REMARKS
CHATTANOOGA    CLEAR     61  48  62 NE7       30.19R
$$

SKY/WX REPORTED AS FAIR MEANS FEW OR NO CLOUDS BELOW
12 THOUSAND FEET.




USA.gov is the U.S. government's official web portal to all federal, state and local government web resources and services.